{"data":{"norad_id":61519,"intl_designator":"2024-183L","name":"STARLINK-32338","alt_names":[],"object_type":"PAYLOAD","status":"ACTIVE","operator":null,"country":"US","launch_date":"2024-10-15","launch_site_code":"AFETR","launch_vehicle":null,"mission":null,"orbit_class":"UNKNOWN","rcs_meters":null,"size_class":null,"mass_kg":null,"dimensions":null,"purposes":["comms"],"wikipedia_slug":null,"has_3d_model":false,"image_url":null,"decayed_at":null,"tle_current":{"epoch":"2026-09-21T09:03:56.912256Z","epoch_age_seconds":116324,"freshness":"FRESH","line1":"1 61519U 24183L   26264.37774204  .00001248  00000+0  48078-4 0  9999","line2":"2 61519  53.1595 303.4971 0001545  82.7483 277.3696 15.34390278109750","mean_motion":15.34390278,"eccentricity":0.0001545,"inclination_deg":53.1595,"raan_deg":303.4971,"arg_perigee_deg":82.7483,"mean_anomaly_deg":277.3696,"bstar":4.8078e-5,"rev_number":10975,"period_min":93.848352707042,"perigee_km":461.67522191095,"apogee_km":463.78905047404,"semimajor_km":6840.8691361925,"source":"CELESTRAK","updated_at":"2026-09-22T09:00:49.356816Z"}}}